Youngsville, NM (87064)

6:35 PM MDT on April 01, 2015 (GMT -0600)
Las Silvestres | | Change Station
CLOSE
Current Station
Personal Weather Station
Location: Abiquiu, NM
Elevation: 6010 ft
Nearby Weather Stations
Active Advisory: Fire Weather Warning

Elev 6010 ft 36.21 °N, 106.35 °W | Updated 14 minutes ago

Mostly Cloudy
Mostly Cloudy
66.9 °F
Feels Like 66.9 °F
N
2.0
Wind Variable Wind from South
Gusts 14.0 mph

Today
High -- | Low -- °F
--% Chance of Precip.
Yesterday
High -- | Low -- °F
Precip. -- in
6:52 AM 7:28 PM
Waxing Gibbous, 94% visible
Pressure 29.95 in
Visibility 10.0 miles
Clouds Clear
Dew Point 29 °F
Humidity 24%
Rainfall 0.00 in
Snow Depth Not available.
UV 1 out of 12
Pollen 11.50 out of 12
Air Quality Not available.
Flu Activity Not available.
METAR KLAM 020015Z AUTO 31013G19KT 10SM CLR 15/M06 A2995 RMK AO2 T01541064

More Conditions Fewer Conditions

Pressure 29.95 in
Visibility 10.0 miles
Clouds Clear
Dew Point 29 °F
Humidity 24%
Rainfall 0.00 in
Snow Depth Not available.
UV 1 out of 12
Pollen 11.50 out of 12
Air Quality Not available.
Flu Activity Not available.
METAR KLAM 020015Z AUTO 31013G19KT 10SM CLR 15/M06 A2995 RMK AO2 T01541064

More Conditions Fewer Conditions

10-Day Weather Forecast

Almanac

Astronomy

Apr. 01, 2015 Rise Set
Actual Time
Civil Twilight
Nautical Twilight
Astronomical Twilight
Moon
Length of Visible Light
Length of Day
Tomorrow will be .
, % of the Moon is Illuminated

Today's Extremes

State Highs State Lows

Community

WunderPhotos

Upload Photos

1,810,131 photos uploaded!

WunderBlogs® & News

Nearby

Air Quality

  Air Quality AQ Index Pollutant
Not available.

Snow Depth

Station Depth Elevation

Earthquake Activity

City Distance Mag. Time & Date
Minimum magnitude displayed is 2.5.

Coastal Water Temperatures

Place Temperature

Stations

Nearby Weather Stations

Station Location Temp. Windchill Dew Point Humidity Wind Precip. Elev Updated Type
                   
Fire Weather Warning
Statement as of 6:03 AM MDT on April 01, 2015

... Red flag warning remains in effect from 11 am to 9 PM MDT
Thursday...

A red flag warning remains in effect from 11 am to 9 PM MDT
Thursday.

* Area and timing... this includes the north central mountains
and west Central Highlands below below significant snow pack as
well as the Rio Grande Valley late Thursday morning through
early evening.

* 20 foot winds... westerly 20 to 30 mph with gusts to 45 mph.

* Relative humidity... minimums between 5 and 8 percent lowlands
and 9 to 15 percent Highlands.

* Impacts... any fires that develop will likely spread rapidly.
Outdoor burning is not recommended.

Precautionary/preparedness actions...

Please advise the appropriate officials or fire crews in the
field of this red flag warning.